Hourly Weather Roundup
Issued by NWS Central Illinois

Home | Current Version | Previous Version | Graphics & Text | Print | Product List | Glossary On
Versions: 1 2 3 4 5 6 7 8 9 10 11 12 13 14 15 16 17 18 19 20 21 22 23 24 25 26 27 28 29 30 31 32 33 34 35 36 37 38 39 40 41 42 43 44 45 46 47 48 49 50
000
NZUS43 KILX 121410
HWRILX

AREA WEATHER ROUNDUP
NATIONAL WEATHER SERVICE, LINCOLN IL
900 AM CDT SAT JUL 12 2014


CITY           SKY/WX    TMP DP  RH WIND       PRES   REMARKS
BLOOMINGTON    LGT RAIN  69  67  93 SE12G20   30.11R FOG
CHAMPAIGN      TSTM      70  68  93 VRB5      30.15R VSB 1
DECATUR        CLOUDY    73  68  84 S10       30.10F
EFFINGHAM      CLOUDY    72  69  89 SE8       30.14R FOG
FLORA          CLOUDY    72  70  92 N5        30.15R
GALESBURG      CLOUDY    78  70  78 CALM      30.04F
JACKSONVILLE   PTSUNNY   80  74  82 SW7       30.09S HX  85
LACON          CLOUDY    72  69  91 CALM      30.04F
LAWRENCEVILLE  LGT RAIN  72  69  90 CALM      30.17R FOG
LITCHFIELD     CLOUDY    76  73  88 S7        30.11F
$$


CITY           SKY/WX    TMP DP  RH WIND       PRES   REMARKS
LINCOLN        CLOUDY    76  71  83 S9        30.06R
MACOMB         CLOUDY    78  74  86 SW6       30.07F HX  81
MATTOON        LGT RAIN  69  69 100 SE7       30.13F
MT CARMEL AP   CLOUDY    73  70  88 CALM      30.15F
OLNEY-NOBLE AP TSTM      70  68  94 N24       30.17R
PARIS          RAIN      70  69  96 SW8       30.15R
PEORIA         CLOUDY    79  71  76 NW3       30.06R HX  82
PONTIAC        TSTM      72  70  94 S10G23    30.08R VSB 1
RANTOUL        RAIN      71  68  90 SW15G21   30.14R
ROBINSON       CLOUDY    72  70  95 W7        30.19R
SPRINGFIELD    CLOUDY    80  73  79 S7        30.08S HX  84
TAYLORVILLE    CLOUDY    73  72  94 S8        30.10F
$$

...REGIONAL REPORTS...


CITY           SKY/WX    TMP DP  RH WIND       PRES   REMARKS
CHICAGO O`HARE CLOUDY    70  66  87 S8        30.04F FOG
KANKAKEE       CLOUDY    70  69  98 S9        30.07S
MOLINE         CLOUDY    72  69  90 SW6       30.01R
MOUNT VERNON   CLOUDY    77  70  78 S7        30.15S
PITTSFIELD     PTSUNNY   82  72  72 SW8       30.09S HX  87
QUINCY         PTSUNNY   82  72  71 W10       30.07R HX  87
ROCKFORD       LGT RAIN  71  67  87 CALM      30.05F
$$


CITY           SKY/WX    TMP DP  RH WIND       PRES   REMARKS
BURLINGTON     CLOUDY    79  74  84 S6        30.03F HX  82
CEDAR RAPIDS   CLOUDY    73  73 100 SW5       30.00F
DES MOINES     CLOUDY    74  70  87 S9        30.02F
KIRKSVILLE     CLOUDY    77  72  84 CALM      30.07F
OTTUMWA        PTSUNNY   78  71  79 NW3       30.03S HX  80
ST LOUIS       CLOUDY    82  73  74 SW9G17    30.11S HX  87
$$


CITY           SKY/WX    TMP DP  RH WIND       PRES   REMARKS
TERRE HAUTE    LGT RAIN  70  66  87 S9        30.16R FOG
EVANSVILLE     CLOUDY    78  65  63 S6        30.17R HX  80
INDIANAPOLIS   CLOUDY    76  62  62 SW9G17    30.15S
LAFAYETTE      CLOUDY    72  64  76 S7        30.12R
MADISON        CLOUDY    73  65  75 CALM      30.04S
MILWAUKEE      CLOUDY    73  63  70 SW9       30.04S
$$




USA.gov is the U.S. government's official web portal to all federal, state and local government web resources and services.